User: anonymous   Login
Location: Charleston
(38.3500°N, 81.6330°W)
Time: 12:13:06
(UTC-04:00)
Language:

Cosmos 2228 - Orbit

View from above orbital plane
View from above orbital plane
View from above satellite
View from above satellite

Ground track
Ground track

The orbit data is extracted from the following two-line orbital elements,

1 22286U 92094A   18173.94942151 +.00000169 +00000-0 +15654-4 0  9990
2 22286 082.5201 024.4169 0020529 334.5365 025.4839 14.87946668356557
Epoch (UTC): 22 June 2018 22:47:10
Eccentricity: 0.0020529
inclination: 82.5201°
perigee height: 590 km
apogee height: 618 km
right ascension of ascending node: 24.4169°
argument of perigee: 334.5365°
revolutions per day: 14.87946668
mean anomaly at epoch: 25.4839°
orbit number at epoch: 35655

The dashed part of the orbit path shows where the satellite is in the earth's shadow,  

DLR